sat.trackr.live / text

‹ back to catalog

COSMOS 2494 (SKRL-756 2)

NORAD 39491 · 2013-078B

PAYLOAD ACTIVE UNKNOWN

§ Identity

Operator
Country
CIS
Launch date
2013-12-28
Launch site
PLMSC
Launch vehicle
Mass (kg)
RCS (m²)
0.68

Purposes: military

External: N2YO · Heavens-Above · Gunter

§ Orbital elements

Epoch: 2026-05-25T03:24:39.981024Z

Period
95.70 min
Inclination
82.4106°
Eccentricity
0.0014433
Mean motion
15.04696771 rev/d
Perigee alt
542.4 km
Apogee alt
562.4 km
Semi-major
6,930.6 km
B*
1.9339e-4
RAAN
273.2143°
Arg perigee
283.7477°
Mean anomaly
76.2143°
Rev number
67,534

§ Raw data

COSMOS 2494 (SKRL-756 2)1 39491U 13078B   26145.14212941  .00002754  00000+0  19339-3 0  99922 39491  82.4106 273.2143 0014433 283.7477  76.2143 15.04696771675348

JSON: /api/v1/satellites/39491 · /tle

For live sub-satellite position, see the globe view (requires WebGL).

§ Visibility from observer

Set your observer location to see the next 7 days of passes ≥ 10°. The values pass through the URL so the page stays shareable.

No JS? Fill the form by hand. The geolocation button needs JavaScript.